Theta_e
322 321 320 320 320 320 320 319 319 319 319 318 318 318 319 318 317 317 316 317 319 320 320 320 321 321 322 323 325 326 326 326 326 326 326 325 325 326 327 327 326 325 325 326 326 326 329 330 327 326 325 326 327 327 327 327 327 327 326 326 326 325 326
320 320 320 320 320 320 320 319 319 318 318 318 318 317 317 317 315 314 313 314 317 318 318 319 319 319 320 322 323 324 324 323 322 323 324 324 324 325 326 325 325 324 323 325 324 323 324 326 328 325 321 321 322 323 327 329 328 327 325 325 326 326 327
319 320 320 320 320 320 319 319 318 318 317 317 316 316 316 315 314 313 310 311 314 316 317 317 318 318 319 320 321 322 322 321 318 319 321 322 324 325 325 324 324 324 323 323 322 321 320 319 322 320 315 316 318 319 322 324 322 319 318 320 323 323 324
318 319 320 321 320 320 319 318 318 317 316 315 315 315 314 314 313 313 310 310 312 313 314 315 316 316 317 318 319 319 319 318 318 318 318 319 322 323 322 321 320 319 319 318 316 319 320 319 319 317 313 313 314 313 314 313 311 312 314 317 320 321 323
318 316 317 320 320 320 320 318 317 316 316 315 315 314 314 314 314 313 311 311 311 311 311 312 313 313 315 317 317 317 317 316 316 316 316 316 317 318 316 315 315 314 314 313 312 314 317 317 317 315 312 312 312 311 310 309 308 309 311 313 315 317 319
318 314 313 317 319 320 319 318 317 315 313 314 315 315 314 315 314 313 312 312 313 312 310 309 309 310 313 315 315 315 314 314 314 315 314 314 314 314 314 313 313 313 312 312 311 311 311 312 312 312 311 312 312 311 311 310 309 308 309 310 311 311 312
319 314 311 313 316 319 318 316 316 314 310 309 312 314 314 315 314 313 313 314 314 314 313 310 309 309 310 312 314 314 313 313 313 314 313 313 313 312 313 313 313 313 312 311 311 311 310 310 310 311 311 311 311 311 311 310 310 309 309 309 309 309 309
320 315 312 312 314 316 316 315 316 316 311 309 310 312 313 313 314 313 313 315 315 314 314 314 311 308 306 307 310 311 313 313 312 312 311 310 310 310 311 311 311 312 312 311 311 311 310 310 309 309 310 312 313 310 309 309 310 309 309 308 307 306 306
319 316 313 312 313 314 313 314 316 316 314 311 311 311 311 312 312 312 312 313 314 314 315 315 313 310 306 305 305 306 310 312 312 312 311 309 308 308 307 307 308 310 311 311 311 310 309 309 308 308 308 311 313 312 312 311 310 309 308 307 306 305 304
318 316 314 312 313 313 312 314 316 317 314 313 313 313 311 311 310 310 311 312 312 313 315 316 315 313 310 307 306 305 306 308 309 309 310 310 309 307 306 306 308 310 310 310 310 309 308 308 309 309 308 308 310 314 316 314 310 309 308 306 306 304 303
318 316 314 313 314 314 313 313 315 315 314 313 314 313 310 310 310 310 311 313 312 311 312 315 315 314 312 311 309 308 307 307 306 306 308 309 309 309 307 307 308 309 309 309 309 309 309 309 309 309 309 308 307 310 313 312 310 308 307 306 305 303 302
318 316 316 315 316 315 313 313 313 314 314 313 313 312 310 310 310 311 312 314 315 311 311 313 315 315 314 313 312 311 310 310 308 307 308 309 309 310 308 308 308 308 309 309 309 309 309 309 310 309 309 308 306 306 307 308 309 308 306 305 304 301 300
317 317 318 318 318 317 314 314 314 314 315 315 314 313 312 311 311 312 313 315 316 314 312 312 314 314 314 314 314 313 312 311 310 310 310 309 309 310 309 307 308 308 308 308 308 308 308 308 309 309 307 307 306 306 305 306 308 307 306 304 301 299 298
318 318 319 319 320 318 316 316 317 316 316 316 317 315 314 314 313 314 315 315 316 316 315 313 313 314 314 314 314 314 314 313 312 311 311 310 309 310 310 308 308 308 308 308 308 308 307 308 308 307 307 306 306 305 304 304 305 305 304 302 299 297 297
319 320 320 320 320 319 317 318 319 318 316 317 317 317 316 315 315 315 315 316 316 317 316 315 314 314 315 314 314 314 314 314 314 313 312 312 311 310 310 309 309 309 308 307 307 307 307 307 308 307 307 307 305 303 302 302 302 301 300 299 297 297 298
320 320 320 320 320 319 318 319 319 318 318 317 318 318 317 316 316 316 316 316 317 317 316 316 316 315 315 315 314 313 314 314 314 314 313 314 313 312 311 310 310 311 310 308 307 306 307 307 307 307 307 307 305 303 301 301 301 299 298 298 298 298 299
321 321 321 320 319 319 318 318 319 319 319 319 319 319 318 317 317 317 317 317 317 317 317 317 317 317 316 316 315 314 314 314 314 314 314 314 314 314 313 312 311 311 311 310 309 307 307 307 307 307 307 307 305 303 302 303 304 302 300 300 299 299 300
322 321 321 320 319 319 319 319 319 319 319 320 319 319 319 319 318 318 318 318 317 317 317 317 317 317 317 317 316 316 315 315 314 314 314 314 314 314 314 313 312 312 312 311 310 309 307 307 307 307 307 306 305 303 304 306 306 305 303 302 301 301 300
321 321 320 319 319 319 319 319 320 320 319 319 319 319 319 319 319 318 318 318 318 318 318 318 318 317 317 317 317 317 316 316 316 316 316 315 314 314 314 314 314 313 313 311 310 309 309 307 307 306 306 305 304 304 304 307 307 306 305 304 303 302 301
320 320 319 319 320 320 320 320 319 319 319 319 319 319 318 319 319 318 318 318 319 319 319 318 318 317 317 317 316 316 317 317 317 317 318 317 316 315 315 314 314 314 313 313 312 311 310 309 308 307 306 306 305 305 306 308 308 307 306 306 304 303 302
321 320 319 319 319 320 319 319 319 319 319 318 318 319 318 318 318 318 318 319 319 319 318 318 318 318 318 317 317 317 317 317 318 318 318 318 318 317 316 316 315 315 314 314 313 312 311 310 309 308 307 306 305 304 305 306 306 305 306 306 305 303 302
320 320 319 318 319 319 319 319 319 318 317 317 318 318 318 318 318 318 318 319 318 318 318 318 319 320 319 319 318 318 318 318 318 319 319 318 318 318 317 317 317 317 316 315 314 313 313 312 311 310 309 307 305 304 304 304 303 304 305 305 304 303 302
320 319 319 318 319 319 319 319 319 318 317 318 318 319 319 319 319 319 318 318 319 319 319 320 320 320 320 320 319 319 319 319 319 318 318 318 319 319 318 319 318 318 318 317 315 314 313 312 312 311 310 308 305 304 304 304 303 303 303 303 302 302 301
318 316 316 316 316 317 317 318 319 318 319 319 319 320 319 320 320 320 320 319 320 319 319 319 319 319 319 319 319 319 319 319 319 319 319 319 319 319 319 319 319 318 318 317 316 314 313 312 311 311 310 307 305 305 304 304 303 303 302 302 301 301 300
314 313 312 312 313 313 314 315 316 316 316 316 316 317 317 317 318 318 317 317 316 315 315 315 314 316 317 318 319 319 319 319 320 319 319 319 319 319 319 319 318 318 318 318 316 315 314 312 310 309 308 306 305 305 304 303 304 303 302 301 301 301 300
310 310 310 310 310 310 310 311 310 310 310 311 311 312 312 312 312 312 311 311 311 311 311 311 311 311 312 314 316 317 318 319 319 319 319 319 319 319 319 318 318 318 317 316 315 314 314 312 309 307 306 305 304 304 303 303 303 302 302 301 301 301 299
308 308 308 308 308 308 308 308 308 308 309 309 310 310 310 310 309 309 309 309 309 310 309 309 309 309 309 310 311 313 316 318 319 319 319 319 319 319 318 318 317 316 316 315 314 313 312 310 308 306 304 304 304 304 303 303 302 302 302 301 301 300 299
308 308 307 307 307 307 307 308 307 307 308 308 309 309 309 309 308 308 308 308 308 308 308 308 308 308 308 308 309 310 311 315 317 318 318 319 319 319 318 316 316 315 315 314 313 312 310 308 307 305 304 304 303 303 302 302 302 301 301 300 300 299 299
308 308 308 308 308 307 308 307 307 307 308 308 308 308 308 308 308 308 307 307 307 307 308 308 308 309 309 308 309 309 310 312 315 317 318 318 318 318 316 315 314 314 313 312 311 309 307 306 306 305 304 304 303 302 302 302 301 301 300 300 299 298 297
307 307 307 307 307 307 307 307 307 308 308 308 308 308 308 308 307 307 307 307 307 307 307 308 309 309 308 309 309 309 311 313 316 316 317 316 316 315 314 313 312 311 310 308 307 306 305 305 305 304 303 303 302 302 302 301 301 300 299 298 297 296 295
306 306 306 306 306 306 306 306 306 307 307 308 308 308 308 308 308 308 307 307 308 307 307 308 309 308 308 308 309 309 311 313 315 315 314 313 312 311 311 310 309 308 307 305 304 303 303 303 304 303 303 303 302 301 300 299 298 297 296 296 295 294 293
305 305 305 305 305 305 305 305 305 305 305 306 306 306 307 307 308 308 308 308 308 308 308 308 308 308 308 308 308 308 310 312 313 312 311 309 308 308 308 307 305 305 305 303 303 302 302 302 303 302 302 302 301 299 298 297 296 295 295 294 293 293 293
306 306 306 305 305 305 305 305 305 305 304 305 304 305 305 306 306 307 307 308 308 309 309 308 308 308 308 307 307 308 309 311 311 310 308 307 307 306 305 304 303 302 303 302 302 302 302 301 301 300 300 299 298 297 296 295 294 294 294 293 293 292 292
305 305 305 305 305 305 304 304 304 304 305 304 304 305 305 305 306 306 307 308 309 308 309 308 308 308 308 308 307 307 308 309 309 308 307 305 305 304 303 302 301 300 300 300 300 300 299 299 298 297 297 296 295 295 294 294 293 293 292 292 292 292 291
304 304 305 304 304 304 304 304 304 304 304 304 304 305 305 305 306 306 307 308 308 308 308 308 308 308 308 308 307 307 307 308 308 307 306 304 303 302 301 301 300 299 299 299 299 298 298 297 296 296 295 294 294 293 293 292 292 292 291 291 291 290 290
304 304 304 304 303 304 304 303 304 303 303 304 304 304 305 305 305 305 305 306 307 307 307 307 307 307 307 307 307 307 306 307 306 306 305 303 301 300 299 299 298 298 298 297 297 296 296 295 295 294 293 293 293 292 292 291 291 291 290 290 290 290 290
303 303 304 303 303 304 304 304 304 304 303 304 304 304 305 304 304 304 304 305 305 305 306 305 305 306 306 306 305 305 305 305 304 303 302 301 299 298 298 297 297 296 296 295 295 294 294 293 293 292 292 292 291 291 291 290 290 290 290 289 289 289 289
Wind_Speed
15 13 11 9 9 9 10 10 9 8 8 7 7 6 6 6 5 5 4 3 3 4 4 3 3 3 4 4 5 5 5 4 3 3 4 5 5 4 2 1 2 1 0 2 3 4 3 1 1 1 0 1 2 0 1 1 1 2 3 4 5 5 3
14 14 13 11 11 10 10 10 8 7 7 6 6 7 8 7 6 5 3 3 4 4 3 3 3 3 3 3 4 5 5 6 5 4 3 4 5 5 4 2 2 1 1 0 3 5 5 3 0 1 4 6 5 5 2 1 2 3 4 5 4 5 4
16 16 15 14 13 11 10 9 8 6 5 6 7 8 8 7 6 5 3 3 4 4 4 3 4 4 4 4 5 4 4 6 7 7 7 6 5 5 4 3 2 2 2 1 4 7 8 8 4 2 6 7 7 11 11 9 10 11 11 10 7 6 5
18 18 18 16 14 12 10 9 7 6 6 6 8 9 8 7 5 5 5 6 6 5 4 5 4 5 5 6 6 6 5 6 6 7 7 8 8 7 6 5 5 5 6 6 7 6 5 5 5 4 7 9 10 14 18 19 18 17 17 16 15 14 12
15 16 17 17 15 12 11 10 8 8 7 7 8 7 7 6 4 4 6 8 9 7 7 6 5 6 6 7 7 7 6 6 6 6 7 9 9 9 9 9 9 9 10 10 9 8 6 8 9 6 5 7 9 11 16 21 22 21 19 19 19 18 17
14 13 14 15 14 12 11 11 10 8 8 8 7 6 5 4 3 3 5 7 8 8 8 7 7 7 7 8 8 7 7 7 7 7 9 10 9 9 9 9 9 10 12 11 10 10 8 8 11 8 5 6 6 8 10 13 17 20 21 21 19 19 19
14 13 13 14 13 12 11 11 9 8 7 6 6 6 5 4 2 2 3 4 5 6 7 7 8 7 7 8 8 9 10 10 9 9 9 9 9 9 9 9 10 11 12 12 11 12 12 10 9 7 6 7 7 7 7 8 11 13 17 20 19 18 18
16 14 13 13 12 12 11 10 9 7 6 5 5 5 4 3 2 1 1 2 2 3 4 5 6 6 6 7 8 9 10 10 9 10 9 9 9 9 8 8 10 11 12 11 12 13 14 14 12 9 7 6 5 5 5 9 14 13 13 16 18 18 17
17 15 14 13 12 12 11 10 9 7 6 5 4 4 3 3 2 0 1 1 0 0 1 2 4 5 5 6 7 8 9 9 9 10 10 10 10 10 9 9 10 12 12 10 11 12 12 13 13 11 8 6 5 3 2 5 9 12 12 14 17 18 17
19 16 15 14 13 12 11 9 8 7 6 5 4 3 3 4 2 1 1 2 2 2 2 2 2 3 4 4 5 6 7 8 8 9 9 10 11 11 11 12 12 12 11 10 11 12 12 13 13 13 12 8 7 5 2 2 2 6 11 14 15 16 16
19 17 16 14 13 13 11 9 8 7 6 5 5 4 4 4 4 3 2 2 4 4 4 3 1 2 3 3 4 5 5 6 7 9 8 8 10 11 11 12 12 12 12 11 11 12 11 12 12 13 14 13 10 8 6 4 2 4 9 13 15 15 15
19 18 17 16 14 14 13 10 8 7 5 5 6 5 5 5 5 5 4 4 4 5 5 4 3 2 2 2 2 3 3 3 4 6 7 7 8 8 10 11 10 10 10 9 9 10 9 9 10 11 12 14 15 13 11 8 3 4 8 11 12 13 13
21 20 19 17 15 14 13 12 10 8 6 5 6 7 6 6 6 6 6 5 5 6 6 6 5 4 4 3 3 2 1 2 2 3 4 5 5 6 8 9 9 9 8 7 7 7 8 8 8 9 11 12 14 14 13 12 8 4 7 9 10 12 12
23 22 20 18 16 15 14 14 13 10 7 8 9 9 9 9 8 9 8 7 7 6 7 7 7 7 7 6 5 4 3 2 1 1 1 2 3 4 5 7 8 7 6 5 5 5 6 7 7 8 9 10 13 13 12 14 11 6 6 7 9 11 12
23 21 20 18 17 16 15 15 15 12 10 11 13 11 11 10 11 12 12 11 10 9 8 7 8 9 10 10 9 8 7 6 4 3 2 1 1 2 2 3 5 6 6 5 4 4 4 5 5 6 7 8 11 12 12 12 10 7 6 6 8 10 11
21 20 19 18 17 17 16 16 14 12 11 13 15 15 13 13 14 14 14 14 14 12 10 8 8 10 12 14 14 12 10 10 8 7 6 5 3 3 3 3 3 3 4 3 4 4 4 4 3 4 5 6 8 9 10 10 10 9 8 7 8 10 12
17 17 17 17 17 16 16 15 14 12 12 13 14 14 14 14 15 17 18 18 17 15 13 11 10 11 13 15 16 16 15 13 12 10 9 9 8 7 6 5 5 4 4 4 4 4 4 4 3 3 4 4 4 6 7 8 9 8 8 8 7 9 11
14 14 15 16 16 16 15 14 15 14 12 11 10 11 12 12 14 18 20 20 20 20 18 16 14 13 14 15 16 18 19 18 15 13 12 11 11 10 10 9 8 8 7 7 6 5 5 5 4 3 3 2 2 3 4 5 7 7 7 7 7 7 9
14 14 15 15 16 16 14 11 12 12 10 9 9 9 11 12 15 20 21 20 20 21 21 20 18 17 17 16 15 16 20 21 19 17 15 14 13 13 13 12 11 11 11 10 9 8 7 6 6 6 5 4 3 2 2 4 5 5 6 7 6 7 8
12 13 15 15 14 14 12 9 8 9 9 9 9 11 14 14 14 17 21 21 19 18 18 18 18 19 19 19 17 17 20 23 22 20 18 17 15 15 14 14 14 14 14 14 13 12 11 10 9 9 7 6 6 5 3 1 3 2 3 5 6 7 8
10 11 12 11 9 10 11 10 10 10 9 8 10 12 14 13 12 14 18 18 17 16 15 16 16 17 17 18 19 20 22 23 22 20 20 19 18 16 16 16 16 16 16 16 16 16 14 13 12 11 10 8 8 7 4 1 1 1 3 5 6 7 8
9 8 8 8 8 10 10 10 11 10 9 9 11 11 11 12 13 14 16 16 15 14 14 14 14 14 15 16 17 19 20 20 20 19 19 19 18 18 17 18 19 19 18 18 18 19 18 16 15 13 12 11 10 8 4 1 1 2 4 6 6 7 8
8 6 7 7 7 7 7 8 8 7 7 7 9 9 9 9 10 11 12 12 11 10 10 11 11 12 13 14 16 17 17 17 16 17 17 18 18 18 18 18 18 19 19 19 19 21 21 20 18 16 13 11 9 7 4 2 1 3 4 5 5 7 9
8 8 8 8 8 7 6 6 5 4 4 5 5 5 5 5 5 6 7 7 6 6 6 6 7 8 9 10 11 12 13 13 14 14 15 16 16 16 15 15 15 16 17 19 20 21 22 23 20 17 13 10 8 6 4 3 3 4 4 4 4 6 7
10 10 11 11 11 10 10 9 9 8 7 6 5 4 3 2 2 1 1 1 2 3 4 5 5 6 7 7 8 9 10 11 11 12 13 13 13 13 12 13 13 14 15 17 18 19 21 23 20 16 13 11 9 8 5 5 5 5 4 4 4 5 6
11 13 14 14 14 13 13 12 12 11 11 10 9 8 7 6 5 4 4 4 5 5 6 6 7 7 7 7 7 8 9 10 11 11 11 11 11 11 12 13 14 14 14 15 16 17 19 20 18 16 14 13 11 8 6 5 6 6 6 6 6 5 7
13 14 15 15 15 14 13 13 12 11 10 9 9 8 8 6 5 5 4 5 5 6 7 8 9 9 9 10 9 9 9 9 10 10 11 11 10 11 12 13 13 13 12 13 14 14 15 17 18 17 14 12 9 7 6 5 5 5 6 7 7 7 8
12 13 13 13 13 12 12 10 9 8 7 7 7 6 5 4 4 3 4 4 6 7 8 9 10 10 11 11 11 11 10 9 9 10 11 11 11 11 11 12 12 12 11 11 12 12 12 16 18 16 13 10 8 6 5 4 4 5 6 7 8 9 9
12 11 11 11 11 11 10 9 8 7 6 6 5 4 4 3 2 2 3 5 6 7 8 8 8 9 9 10 10 11 11 10 10 10 10 11 11 11 11 11 10 10 9 9 9 8 12 16 17 14 12 9 7 5 5 5 5 6 7 8 9 9 9
12 12 11 11 11 11 10 10 9 8 7 6 5 3 2 1 1 2 3 4 6 8 8 8 8 8 9 10 10 10 10 10 10 9 8 9 9 9 9 8 7 6 6 6 6 9 12 14 13 11 9 7 5 5 5 5 6 7 8 9 9 9 9
9 10 10 11 10 10 10 9 9 8 6 5 4 2 1 0 1 2 3 4 6 8 8 8 9 10 11 11 10 10 10 10 9 8 6 6 5 5 4 3 2 2 3 5 7 9 10 9 9 8 6 4 3 4 5 5 6 7 8 9 9 9 10
4 5 6 7 7 7 7 7 7 6 5 4 3 2 1 1 2 3 4 5 6 7 7 8 8 9 10 10 9 9 9 8 7 6 4 2 1 1 2 3 3 3 5 6 7 7 6 5 5 4 3 4 4 4 5 6 7 8 8 9 10 10 11
3 2 3 4 4 4 4 4 3 2 2 2 2 2 2 3 4 5 6 6 7 7 7 7 8 8 8 8 7 7 7 7 5 4 3 2 3 4 5 6 6 6 6 6 6 5 3 2 2 2 3 4 4 5 6 7 8 9 10 10 11 11 12
7 7 7 6 4 4 3 2 2 1 0 1 1 1 2 3 4 5 6 7 7 7 7 7 8 8 7 6 6 6 5 4 5 5 5 5 5 6 7 7 7 6 5 4 3 1 0 1 3 4 4 5 5 6 7 8 9 9 10 10 11 11 12
11 11 11 9 7 7 6 5 5 4 3 2 2 2 2 3 3 4 5 6 7 8 8 8 8 7 6 5 5 5 4 2 4 6 7 7 8 8 7 7 6 5 3 1 1 2 3 4 5 5 5 5 5 6 6 7 8 8 9 10 11 12 13
14 14 13 11 10 10 9 8 8 6 5 5 4 4 4 4 4 4 5 6 8 9 9 8 8 7 6 5 3 3 2 2 4 7 8 8 9 9 8 6 5 3 2 2 3 3 3 3 3 3 3 4 4 4 5 6 7 9 11 12 14 15 16
16 15 14 13 12 12 11 10 9 8 7 7 6 6 6 6 6 7 7 8 9 10 10 9 8 8 6 5 4 3 3 4 6 7 7 8 8 8 6 5 3 2 1 1 1 2 2 2 3 3 3 3 4 5 7 8 10 12 13 15 16 17 18
Wind_Direction
176 175 177 172 165 159 151 146 138 130 124 120 128 142 155 155 144 139 140 153 165 155 140 131 120 102 88 80 77 85 102 118 141 188 207 208 201 197 188 215 283 313 116 158 153 142 148 186 341 338 42 115 147 127 206 181 64 16 354 343 318 327 357
175 171 170 167 162 161 157 149 142 134 127 124 130 142 149 147 136 128 129 161 171 155 140 132 122 112 98 97 102 94 91 97 99 101 118 149 172 188 190 207 254 297 22 88 110 91 72 64 27 332 42 75 75 32 21 159 60 44 20 9 331 311 319
169 166 166 167 167 167 163 154 147 139 133 132 138 145 146 139 126 109 101 134 152 147 143 138 129 119 107 109 110 103 97 94 87 81 80 92 118 138 147 163 166 118 111 65 56 59 56 57 67 30 33 62 67 55 67 82 77 75 71 64 61 43 23
170 170 170 172 174 175 174 166 158 150 142 137 141 145 143 133 116 98 96 109 117 124 132 135 140 138 127 121 120 118 111 92 76 69 70 79 96 106 103 99 89 77 77 69 61 76 99 91 84 57 47 68 79 77 80 83 81 80 76 71 66 61 54
181 181 180 181 183 182 181 176 167 159 152 149 151 151 144 135 116 99 105 107 105 105 109 117 128 137 139 136 133 128 113 94 85 82 84 88 94 98 93 86 84 76 71 68 63 74 103 124 121 118 104 94 88 88 88 82 76 73 72 70 67 67 65
197 196 191 190 190 190 189 186 177 168 163 163 167 166 158 146 127 106 109 107 102 98 96 97 102 115 134 140 138 130 115 107 107 104 101 98 93 92 93 90 87 79 72 66 62 66 76 111 124 128 138 129 115 105 94 83 75 69 67 68 69 70 70
206 205 200 196 194 195 197 195 188 180 171 167 171 175 172 165 149 118 109 103 99 95 90 89 92 101 117 128 130 124 117 115 114 109 102 98 95 93 96 96 90 83 77 71 68 70 70 80 101 116 123 113 106 101 86 77 78 70 62 62 64 66 65
209 208 202 200 199 198 198 198 196 193 185 171 166 174 183 186 181 135 104 96 97 90 83 81 84 94 106 115 121 120 117 118 116 110 102 96 96 95 94 96 97 93 87 82 77 72 71 70 74 96 127 125 91 77 71 68 68 67 62 59 57 57 56
207 207 203 202 204 203 201 202 203 205 203 188 174 182 195 199 202 233 330 344 160 39 40 50 61 76 92 102 111 116 119 122 117 110 105 98 92 91 94 97 102 101 94 89 84 76 74 74 71 80 103 131 129 103 66 63 60 58 59 58 54 51 50
207 209 206 204 206 207 206 207 212 218 220 212 204 208 215 214 215 245 310 313 286 281 304 331 22 51 64 78 92 103 114 123 119 110 107 101 92 90 94 96 97 99 96 92 89 81 78 78 76 76 76 89 132 150 114 61 58 53 54 54 52 48 46
210 211 210 208 208 208 208 209 214 222 227 226 227 230 232 226 225 232 256 299 298 286 282 284 310 18 36 51 73 90 105 119 119 113 110 106 101 97 97 98 97 98 97 92 88 84 82 79 73 71 70 72 91 119 123 116 98 65 61 55 50 44 41
211 210 209 208 210 211 211 210 209 213 218 227 236 238 240 236 233 239 246 265 288 290 282 272 268 291 335 3 27 70 99 116 115 112 111 109 108 106 103 103 104 104 100 91 85 82 81 81 74 70 70 69 71 82 101 114 109 71 70 61 51 44 39
212 209 208 209 214 216 216 215 210 206 206 223 240 242 245 245 242 247 251 255 269 285 283 272 269 278 292 305 318 338 46 112 116 108 105 107 113 115 111 109 109 111 110 97 85 80 79 84 85 79 75 73 71 70 79 92 100 95 82 64 48 44 38
212 209 208 211 218 221 223 224 222 217 214 230 244 247 250 254 256 259 262 265 270 278 283 279 277 281 286 290 291 292 292 281 230 176 119 110 118 130 127 117 113 114 119 109 88 79 81 86 89 87 81 76 77 73 71 84 99 108 93 67 45 42 37
212 210 210 214 220 221 223 227 229 230 229 238 250 255 257 258 259 260 263 269 271 269 274 281 287 290 291 289 285 280 279 276 272 264 254 249 163 176 174 145 127 121 122 120 106 100 101 99 94 87 82 74 75 72 67 76 90 94 85 67 44 39 35
215 214 214 216 216 214 217 223 229 236 239 244 254 262 266 265 265 266 266 269 272 269 265 270 287 295 290 286 284 282 279 276 273 271 268 268 264 250 239 218 191 158 147 144 129 126 130 127 117 99 87 73 66 67 62 60 67 71 69 58 37 29 30
217 216 215 216 213 210 212 219 230 243 250 253 261 271 273 270 271 272 269 270 274 273 270 271 282 285 281 282 285 285 282 278 275 275 275 273 268 263 258 248 242 235 215 198 178 161 158 156 149 131 110 89 68 68 62 47 44 51 55 52 38 24 22
213 212 209 208 206 205 210 220 231 238 248 257 261 268 274 272 268 268 270 273 275 274 274 277 281 276 269 272 281 287 286 281 278 278 278 275 271 268 267 262 255 251 244 230 216 202 191 188 183 169 154 142 122 98 80 51 35 35 40 43 41 23 13
209 207 200 194 192 199 207 216 223 226 233 244 244 246 259 266 265 266 269 273 274 273 274 278 279 273 266 264 271 282 284 280 277 276 276 275 273 270 269 269 264 257 252 244 234 224 216 213 209 204 199 193 194 183 126 54 24 19 28 32 29 16 7
193 190 182 177 182 193 203 213 225 229 233 240 243 242 247 253 257 261 265 267 268 270 272 278 280 275 270 267 263 266 275 279 279 277 276 275 273 272 271 269 267 262 258 255 247 238 232 229 226 221 215 208 207 206 195 17 347 342 15 19 10 4 1
173 175 166 165 182 201 211 222 231 237 241 249 254 249 247 250 251 252 257 260 263 267 271 277 281 279 277 272 267 267 273 279 281 280 279 277 275 274 275 273 270 265 262 260 257 252 246 241 236 229 222 218 213 209 205 206 278 337 3 358 351 350 349
180 179 167 173 199 209 217 227 232 242 256 265 267 261 255 257 256 254 256 260 266 274 279 280 281 284 286 284 279 279 279 280 282 282 282 281 278 277 278 278 276 270 266 263 261 259 257 252 248 240 231 224 217 211 207 186 89 15 356 345 341 337 334
186 175 159 168 184 188 199 218 229 244 259 262 261 255 250 252 255 257 260 264 270 278 282 283 288 292 293 291 289 286 283 281 283 284 283 282 280 278 278 278 276 274 272 267 260 258 256 253 251 247 242 234 224 223 234 252 306 328 322 321 327 327 329
167 158 151 154 157 154 158 171 180 196 213 220 225 227 232 243 252 258 261 262 267 277 285 295 300 298 294 292 290 287 284 282 282 282 282 284 284 283 283 282 279 276 275 271 263 256 253 251 248 244 238 229 220 227 246 261 275 287 291 302 318 324 328
153 152 151 150 149 145 142 141 141 143 144 142 143 146 148 149 160 190 246 289 329 345 353 350 335 321 312 300 292 289 287 284 282 281 281 283 286 290 292 292 289 284 281 278 272 261 252 247 242 233 221 210 209 219 229 244 263 275 280 290 303 309 314
141 138 137 134 133 132 129 125 122 121 120 121 121 119 115 107 98 86 67 48 36 25 14 4 358 352 344 330 313 298 288 285 284 282 281 282 284 289 292 292 292 290 288 284 278 269 256 242 227 214 206 203 207 214 226 249 267 273 276 279 281 287 296
131 128 126 125 124 123 120 116 114 114 114 115 115 112 109 102 88 71 52 39 26 9 357 352 348 344 341 336 329 318 305 295 289 286 284 281 280 283 287 289 290 290 290 287 282 274 254 229 209 201 199 200 205 216 232 255 265 270 276 280 281 284 288
134 132 129 127 124 121 119 116 114 113 110 111 115 114 111 104 91 66 33 19 8 354 348 345 342 339 336 332 327 322 315 307 299 292 286 282 280 282 285 289 292 294 292 287 283 272 240 211 199 196 197 201 211 219 225 240 258 275 283 285 287 288 287
142 140 138 135 129 126 125 123 122 121 120 122 122 117 112 99 69 37 13 4 2 355 349 346 345 346 344 337 329 322 317 313 307 297 288 284 282 284 288 293 296 296 289 280 271 248 215 202 197 197 199 202 206 212 225 247 266 278 282 283 286 289 289
132 133 135 132 127 123 123 122 121 120 122 128 128 123 120 89 14 357 352 354 356 353 349 349 352 353 354 349 342 332 326 322 314 300 291 287 287 290 294 300 304 297 281 260 227 199 195 199 200 199 198 198 205 228 251 267 276 278 279 284 289 293 296
127 128 129 127 123 119 117 113 108 105 106 111 112 114 120 308 298 305 323 336 340 340 340 342 346 349 351 351 347 341 336 330 319 306 301 299 301 309 319 334 337 285 232 193 178 177 184 197 202 198 200 216 240 260 270 276 282 284 286 293 299 301 302
150 137 133 133 131 128 126 119 108 98 91 82 73 67 47 351 320 316 323 326 326 326 327 330 335 340 342 346 349 345 337 329 316 301 294 294 319 32 67 98 118 157 171 163 164 172 179 194 209 218 246 267 268 266 272 280 285 289 294 298 300 301 302
230 233 205 179 161 155 150 136 121 104 74 49 33 19 356 330 316 311 311 312 311 309 310 317 325 331 334 340 348 347 337 324 303 272 242 205 159 136 134 136 138 147 158 163 169 177 184 207 250 272 280 283 280 278 285 293 295 298 302 303 304 305 306
247 247 234 220 208 200 203 206 206 216 233 5 334 311 295 292 292 293 295 297 296 295 299 306 313 317 320 327 342 350 343 317 282 247 211 186 171 158 151 149 145 146 155 163 167 181 249 313 317 314 312 312 311 307 305 305 305 307 308 308 308 309 309
230 226 222 221 222 222 227 234 238 239 241 255 270 264 255 263 270 278 286 288 287 287 289 291 294 296 298 306 324 343 346 309 256 235 213 190 176 169 166 163 160 158 168 198 264 290 300 307 312 316 319 320 319 317 314 311 311 312 312 312 313 313 311
220 219 219 221 223 225 226 229 233 239 245 250 250 242 243 252 257 264 273 278 281 283 280 277 279 281 280 276 282 307 318 253 225 224 218 200 182 171 167 167 170 179 218 274 294 304 314 324 330 338 341 335 329 324 318 315 314 314 315 316 316 314 313
221 222 222 221 221 221 222 223 226 232 238 237 231 232 240 246 251 258 265 269 271 272 269 266 266 267 262 246 236 241 228 207 207 210 204 190 178 171 166 164 167 179 240 327 2 15 24 32 27 19 8 349 335 326 321 320 320 318 318 318 316 315 313